When you browse on this site, cookies collect data to enhance your experience and personalize the content and advertising you see.
Visit our Privacy Policy to learn more. By continuing to use the site, you agree to this use of cookies and data.
  • In Portugal
  • List of Countries
  • For 7 days
  • Water Temperature
  • Satellite Maps
  • Weather Map
  • Weather Widgets
  • user-avatar
    Login

    Hourly Weather Janiki

    Today, 24 March, Sunday

    Time Temperature Precipitation Wind Pressure Humidity
    00:00 +7°C° 0 mm 2 mps 751 mmHg 50%
    01:00 +7°C° 0 mm 2 mps 751 mmHg 59%
    02:00 +7°C° 0 mm 2 mps 751 mmHg 68%
    03:00 +7°C° 0 mm 3 mps 751 mmHg 78%
    04:00 +6°C° 0 mm 4 mps 751 mmHg 87%
    05:00 +6°C° 0 mm 4 mps 751 mmHg 86%
    06:00 +6°C° 0 mm 4 mps 751 mmHg 85%
    07:00 +5°C° 0 mm 5 mps 752 mmHg 80%
    08:00 +6°C° 0 mm 4 mps 752 mmHg 71%
    09:00 +7°C° 0 mm 4 mps 752 mmHg 61%
    10:00 +8°C° 0 mm 4 mps 751 mmHg 52%
    11:00 +10°C° 0 mm 4 mps 751 mmHg 47%
    12:00 +11°C° 0 mm 3 mps 751 mmHg 41%
    13:00 +12°C° 0 mm 3 mps 750 mmHg 35%
    14:00 +12°C° 0 mm 3 mps 750 mmHg 35%
    15:00 +12°C° 0 mm 3 mps 749 mmHg 35%
    16:00 +12°C° 0 mm 2 mps 749 mmHg 34%
    17:00 +10°C° 0 mm 2 mps 748 mmHg 39%
    18:00 +9°C° 0 mm 2 mps 748 mmHg 43%
    19:00 +8°C° 0 mm 1 mps 748 mmHg 48%
    20:00 +8°C° 0 mm 1 mps 747 mmHg 49%
    21:00 +8°C° 0 mm 1 mps 747 mmHg 49%
    22:00 +8°C° 0 mm 1 mps 747 mmHg 50%
    23:00 +8°C° 0 mm 1 mps 746 mmHg 50%

    Tomorrow, 25 March, Monday

    Time Temperature Precipitation Wind Pressure Humidity
    00:00 +6°C° 0 mm 0 mps 746 mmHg 51%
    01:00 +6°C° 0 mm 0 mps 745 mmHg 52%
    02:00 +6°C° 0.1 mm 0 mps 745 mmHg 54%
    03:00 +6°C° 0.1 mm 0 mps 744 mmHg 57%
    04:00 +6°C° 0.1 mm 0 mps 744 mmHg 59%
    05:00 +7°C° 0.1 mm 1 mps 744 mmHg 60%
    06:00 +7°C° 0.1 mm 1 mps 743 mmHg 61%
    07:00 +6°C° 0.1 mm 2 mps 743 mmHg 63%
    08:00 +7°C° 0 mm 2 mps 743 mmHg 57%
    09:00 +8°C° 0 mm 2 mps 743 mmHg 52%
    10:00 +10°C° 0 mm 3 mps 742 mmHg 46%
    11:00 +10°C° 0.1 mm 3 mps 742 mmHg 46%
    12:00 +10°C° 0.1 mm 3 mps 742 mmHg 46%
    13:00 +11°C° 0.1 mm 3 mps 741 mmHg 46%
    14:00 +10°C° 0.3 mm 4 mps 741 mmHg 47%
    15:00 +10°C° 0.3 mm 4 mps 741 mmHg 48%
    16:00 +9°C° 0.3 mm 5 mps 741 mmHg 49%
    17:00 +7°C° 0.1 mm 4 mps 741 mmHg 54%
    18:00 +7°C° 0.1 mm 3 mps 742 mmHg 59%
    19:00 +6°C° 0.1 mm 2 mps 742 mmHg 63%
    20:00 +6°C° 0 mm 2 mps 743 mmHg 67%
    21:00 +4°C° 0 mm 3 mps 743 mmHg 70%
    22:00 +4°C° 0 mm 3 mps 744 mmHg 73%
    23:00 +3°C° 0.1 mm 3 mps 744 mmHg 75%

    Day after tomorrow, 26 March, Tuesday

    Time Temperature Precipitation Wind Pressure Humidity
    00:00 +3°C° 0.1 mm 3 mps 745 mmHg 77%
    01:00 +3°C° 0.1 mm 3 mps 745 mmHg 79%
    02:00 +1°C° 0 mm 4 mps 746 mmHg 81%
    03:00 0°C° 0 mm 4 mps 746 mmHg 83%
    04:00 0°C° 0 mm 4 mps 747 mmHg 85%
    05:00 0°C° 0 mm 4 mps 747 mmHg 85%
    06:00 0°C° 0 mm 4 mps 748 mmHg 85%
    07:00 0°C° 0 mm 5 mps 748 mmHg 84%
    08:00 +1°C° 0 mm 5 mps 748 mmHg 79%
    09:00 +1°C° 0 mm 5 mps 749 mmHg 73%
    10:00 +2°C° 0 mm 5 mps 749 mmHg 68%
    11:00 +5°C° 0 mm 5 mps 749 mmHg 60%
    12:00 +5°C° 0 mm 6 mps 748 mmHg 52%
    13:00 +8°C° 0 mm 6 mps 748 mmHg 44%
    14:00 +8°C° 0 mm 7 mps 747 mmHg 45%
    15:00 +8°C° 0 mm 7 mps 747 mmHg 46%
    16:00 +7°C° 0 mm 8 mps 746 mmHg 47%
    17:00 +6°C° 0.1 mm 8 mps 747 mmHg 51%
    18:00 +5°C° 0.1 mm 8 mps 747 mmHg 55%
    19:00 +2°C° 0.1 mm 8 mps 748 mmHg 59%
    20:00 +3°C° 0 mm 7 mps 748 mmHg 60%
    21:00 +2°C° 0 mm 6 mps 749 mmHg 61%
    22:00 +1°C° 0 mm 6 mps 750 mmHg 62%
    23:00 0°C° 0 mm 5 mps 750 mmHg 60%

    27 March, Wednesday

    Time Temperature Precipitation Wind Pressure Humidity
    00:00 -1°C° 0 mm 4 mps 751 mmHg 58%
    01:00 -2°C° 0 mm 3 mps 751 mmHg 56%
    02:00 -2°C° 0 mm 3 mps 752 mmHg 57%
    03:00 -2°C° 0 mm 3 mps 752 mmHg 59%
    04:00 -2°C° 0 mm 3 mps 752 mmHg 60%
    05:00 -2°C° 0 mm 3 mps 753 mmHg 58%
    06:00 -1°C° 0 mm 3 mps 753 mmHg 56%
    07:00 -1°C° 0 mm 3 mps 754 mmHg 55%
    08:00 +1°C° 0 mm 3 mps 754 mmHg 47%
    09:00 +2°C° 0 mm 3 mps 754 mmHg 39%
    10:00 +4°C° 0 mm 3 mps 754 mmHg 31%
    11:00 +5°C° 0 mm 3 mps 754 mmHg 30%
    12:00 +7°C° 0 mm 3 mps 754 mmHg 30%
    13:00 +7°C° 0 mm 3 mps 754 mmHg 29%
    14:00 +8°C° 0 mm 3 mps 754 mmHg 33%
    15:00 +8°C° 0 mm 3 mps 754 mmHg 37%
    16:00 +8°C° 0 mm 3 mps 753 mmHg 41%
    17:00 +7°C° 0 mm 2 mps 754 mmHg 46%
    18:00 +7°C° 0 mm 1 mps 754 mmHg 51%
    19:00 +6°C° 0 mm 0 mps 754 mmHg 55%
    20:00 +6°C° 0 mm 1 mps 754 mmHg 57%
    21:00 +6°C° 0 mm 1 mps 755 mmHg 59%
    22:00 +5°C° 0 mm 1 mps 755 mmHg 61%
    23:00 +5°C° 0.1 mm 1 mps 755 mmHg 65%

    28 March, Thursday

    Time Temperature Precipitation Wind Pressure Humidity
    00:00 +5°C° 0.1 mm 1 mps 755 mmHg 69%
    01:00 +5°C° 0.1 mm 1 mps 755 mmHg 74%
    02:00 +5°C° 0 mm 1 mps 755 mmHg 78%
    03:00 +5°C° 0 mm 1 mps 755 mmHg 82%
    04:00 +5°C° 0 mm 1 mps 755 mmHg 86%
    05:00 +5°C° 0 mm 1 mps 756 mmHg 86%
    06:00 +6°C° 0 mm 1 mps 756 mmHg 86%
    07:00 +6°C° 0 mm 1 mps 756 mmHg 86%
    08:00 +7°C° 0 mm 1 mps 756 mmHg 80%
    09:00 +8°C° 0 mm 1 mps 757 mmHg 74%
    10:00 +10°C° 0 mm 1 mps 757 mmHg 68%
    11:00 +9°C° 0.1 mm 2 mps 757 mmHg 64%
    12:00 +10°C° 0.1 mm 2 mps 757 mmHg 60%
    13:00 +12°C° 0.1 mm 2 mps 757 mmHg 56%
    14:00 +10°C° 0 mm 2 mps 757 mmHg 56%
    15:00 +10°C° 0 mm 2 mps 757 mmHg 57%
    16:00 +10°C° 0 mm 2 mps 757 mmHg 57%
    17:00 +9°C° 0 mm 2 mps 757 mmHg 62%
    18:00 +8°C° 0 mm 2 mps 757 mmHg 67%
    19:00 +8°C° 0 mm 1 mps 757 mmHg 71%
    20:00 +7°C° 0 mm 1 mps 758 mmHg 73%
    21:00 +7°C° 0 mm 1 mps 758 mmHg 75%
    22:00 +6°C° 0 mm 1 mps 758 mmHg 77%
    23:00 +6°C° 0 mm 1 mps 758 mmHg 79%

    29 March, Friday

    Time Temperature Precipitation Wind Pressure Humidity
    00:00 +4°C° 0 mm 0 mps 758 mmHg 80%
    01:00 +4°C° 0 mm 0 mps 758 mmHg 82%
    02:00 +4°C° 0 mm 0 mps 758 mmHg 82%
    03:00 +4°C° 0 mm 0 mps 758 mmHg 83%
    04:00 +4°C° 0 mm 1 mps 758 mmHg 84%
    05:00 +5°C° 0 mm 1 mps 758 mmHg 81%
    06:00 +6°C° 0 mm 1 mps 758 mmHg 78%
    07:00 +7°C° 0 mm 1 mps 759 mmHg 75%
    08:00 +8°C° 0 mm 1 mps 758 mmHg 68%
    09:00 +10°C° 0 mm 1 mps 758 mmHg 62%
    10:00 +12°C° 0 mm 2 mps 758 mmHg 55%
    11:00 +13°C° 0 mm 2 mps 758 mmHg 52%
    12:00 +14°C° 0 mm 2 mps 757 mmHg 49%
    13:00 +15°C° 0 mm 2 mps 757 mmHg 45%
    14:00 +15°C° 0 mm 2 mps 756 mmHg 46%
    15:00 +15°C° 0 mm 2 mps 756 mmHg 46%
    16:00 +15°C° 0 mm 2 mps 756 mmHg 46%
    17:00 +13°C° 0 mm 2 mps 755 mmHg 52%
    18:00 +12°C° 0 mm 2 mps 755 mmHg 58%
    19:00 +10°C° 0 mm 1 mps 755 mmHg 64%
    20:00 +10°C° 0 mm 1 mps 755 mmHg 68%
    21:00 +9°C° 0 mm 1 mps 755 mmHg 72%
    22:00 +8°C° 0 mm 1 mps 755 mmHg 75%
    23:00 +8°C° 0 mm 1 mps 755 mmHg 77%
    Show more